Theta_e
363 364 364 364 366 366 365 366 366 367 369 368 367 367 367 366 365 366 366 365 366 365 366 367 367 367 366 366 364 366 368 366 366 366 365 365 365 365 364 361 359 358 357 354 352 350 351 349 350 351 352 350 349 348 346 348 348 345 346 344 343 345 343 341 337 338 341 344 341 340 344 345 345 348 346 347 348 345 348 350 351 346 344 343 347
362 364 364 364 364 365 366 367 368 368 366 367 366 366 366 366 367 367 365 366 367 365 367 367 367 367 366 367 367 367 368 369 365 365 366 366 367 365 363 361 359 359 357 355 354 351 352 351 348 350 352 351 350 348 346 344 347 344 344 344 343 343 345 341 339 337 337 344 343 345 341 345 340 348 345 344 346 348 345 346 348 348 345 344 343
361 364 364 364 364 365 365 366 367 367 365 365 364 363 365 366 366 366 363 363 367 366 366 366 368 368 367 367 368 367 368 369 368 367 368 368 366 364 363 362 360 359 357 355 354 354 352 351 348 349 349 350 350 349 347 346 346 345 344 345 344 343 346 346 341 338 338 338 344 343 343 345 341 343 347 345 346 347 347 346 345 345 344 345 344
359 362 363 362 364 365 365 365 364 364 363 363 362 363 363 364 365 364 364 362 363 366 367 367 368 368 367 368 368 368 368 369 368 367 367 368 367 365 364 364 363 361 358 357 355 354 352 351 349 347 349 349 350 348 347 348 347 346 345 346 347 345 345 348 345 341 340 339 343 343 343 343 344 343 345 346 343 344 345 345 345 344 345 346 345
358 360 361 361 361 362 362 362 362 363 362 361 362 362 362 362 364 364 363 362 363 365 366 367 368 368 367 367 368 368 368 370 369 366 366 367 367 365 365 365 363 362 360 358 355 356 354 352 350 349 349 349 349 347 348 348 348 347 346 346 346 346 345 346 348 345 341 339 340 345 346 344 345 345 345 343 343 343 345 343 343 345 345 344 345
357 358 360 359 360 361 362 362 361 361 361 361 361 361 361 361 362 363 363 363 363 362 365 365 366 368 369 369 369 369 370 370 370 368 365 366 367 365 365 365 363 363 362 359 358 357 355 354 352 351 349 349 348 348 349 349 349 348 347 347 346 347 346 345 347 346 344 340 340 339 345 342 343 344 346 346 341 341 343 345 345 345 345 344 341
357 357 359 359 360 360 361 362 362 360 361 361 360 360 360 360 361 361 363 363 362 361 362 365 366 367 369 369 368 369 370 369 369 369 367 366 367 366 363 365 364 363 362 360 358 358 356 355 354 353 352 351 350 349 350 350 349 350 349 349 347 347 346 345 345 345 344 342 341 341 340 343 344 341 344 347 346 342 339 342 342 345 346 344 341
356 357 358 359 360 359 361 363 363 363 363 364 363 361 361 361 362 362 364 363 361 361 361 363 365 366 368 369 369 370 370 369 369 370 368 366 366 366 364 364 363 363 363 362 360 358 358 356 354 354 353 354 353 352 352 351 352 351 350 350 349 346 345 344 344 343 343 341 339 338 340 340 342 343 343 345 343 342 342 340 337 338 341 346 345
356 355 357 359 361 363 363 364 364 365 364 364 363 362 362 363 364 364 364 363 362 362 362 362 365 366 367 368 369 368 367 368 368 368 367 366 366 365 365 363 363 363 362 361 361 359 359 358 357 355 356 351 347 349 347 347 353 351 352 351 350 348 347 345 343 343 342 341 340 341 339 339 340 340 339 339 338 338 340 341 339 339 339 342 346
356 356 356 360 363 364 365 365 365 365 364 364 365 364 362 363 363 363 364 364 365 364 365 364 364 365 365 367 368 367 367 367 354 338 345 365 366 364 364 364 364 363 362 361 360 360 359 358 357 349 346 344 343 342 340 340 343 350 354 353 351 349 347 345 343 342 342 340 339 339 338 337 338 341 339 340 341 342 340 340 338 339 341 340 341
355 356 358 361 364 365 365 365 366 365 365 365 365 365 364 364 364 365 365 365 365 366 365 364 362 364 365 365 365 366 366 364 337 333 335 340 360 366 363 364 365 363 362 362 361 359 360 359 359 354 349 345 349 338 338 337 338 339 344 350 350 352 349 345 343 344 341 340 340 340 338 339 340 341 340 339 339 339 340 341 340 340 337 336 333
354 359 360 363 364 365 365 366 366 365 366 365 366 366 365 364 364 365 364 365 366 365 364 363 364 364 364 365 364 365 366 343 331 331 333 333 341 364 364 363 363 362 362 361 361 360 359 358 358 358 356 354 353 352 343 336 335 335 336 338 343 344 344 349 345 343 342 340 340 340 340 340 341 342 339 338 339 340 341 340 341 341 338 337 336
357 360 362 364 366 367 368 367 366 366 366 366 367 367 366 365 364 364 364 365 366 365 365 364 364 364 364 364 363 363 365 338 330 328 330 331 332 345 362 363 361 361 362 362 361 361 360 359 358 358 358 344 347 352 352 349 333 330 333 334 336 335 333 333 337 350 346 341 340 339 340 341 341 342 342 342 344 340 341 338 339 339 340 337 338
359 361 362 365 367 368 367 367 366 367 367 367 366 366 365 364 364 364 364 365 365 365 364 364 364 365 364 364 365 364 364 337 327 326 327 327 329 337 360 361 362 362 362 361 361 361 361 360 358 357 358 355 353 352 354 354 350 345 343 344 345 342 333 330 330 332 341 345 343 341 344 346 343 344 345 346 344 342 340 338 340 339 339 338 339
356 362 363 365 366 366 366 366 366 367 367 367 367 366 365 366 365 364 363 363 364 364 363 363 364 365 364 363 363 363 362 332 324 323 323 323 326 330 358 359 361 362 362 362 362 361 362 361 360 358 358 358 356 352 354 355 355 352 347 345 345 346 346 343 342 342 343 341 342 345 347 347 347 347 348 349 347 345 343 342 341 340 340 341 343
355 360 362 363 364 364 364 363 364 366 366 366 365 364 365 365 364 364 363 363 365 364 364 364 363 364 364 364 362 362 363 329 322 322 321 322 324 344 356 358 359 360 362 362 361 361 361 361 361 359 359 359 347 335 344 355 356 354 351 350 348 348 348 347 337 339 345 345 345 344 344 348 340 348 348 348 348 346 344 343 342 339 337 335 334
356 359 361 362 362 363 362 362 363 364 365 364 364 363 364 364 365 366 363 362 361 363 364 363 364 364 364 364 363 363 364 339 319 319 319 319 325 351 355 356 358 359 360 360 359 359 359 359 361 360 359 360 342 328 332 342 355 351 350 350 349 348 348 352 333 332 331 327 324 325 324 324 327 327 327 331 341 341 341 336 335 337 333 328 330
359 361 362 363 363 364 364 364 364 364 365 363 363 363 363 364 365 365 363 361 360 361 363 364 364 364 363 363 363 363 363 341 316 317 317 316 330 352 355 356 357 358 358 359 358 358 357 347 353 359 359 361 329 325 327 342 353 351 351 349 347 347 347 348 346 341 324 325 325 325 325 326 328 327 327 327 327 336 339 334 335 335 331 329 326
358 360 362 364 365 365 364 364 365 364 364 364 364 363 363 364 365 365 363 363 361 362 363 363 362 363 363 363 345 356 363 344 315 317 315 315 332 355 356 356 356 356 356 355 356 355 357 350 341 347 353 352 321 323 324 336 351 351 351 349 346 346 346 348 346 344 343 343 342 341 340 334 341 342 340 326 330 338 339 339 336 333 329 327 326
360 362 362 363 364 364 363 365 365 365 366 366 365 364 364 363 363 362 363 362 362 361 361 362 362 362 362 361 361 361 362 366 336 315 315 314 320 354 358 355 355 355 355 354 354 356 355 358 346 329 331 326 318 318 319 325 348 351 351 348 347 346 348 347 346 344 342 341 343 342 342 342 341 342 342 338 336 338 339 339 337 333 330 327 326
362 363 363 361 362 364 364 365 365 366 366 367 365 364 363 362 362 363 361 362 362 362 360 361 360 361 361 363 362 362 362 363 352 313 313 313 316 331 356 357 357 356 355 354 354 354 354 354 356 331 323 319 316 314 315 319 331 350 351 350 350 349 344 346 345 343 343 341 342 340 341 340 339 338 338 338 337 337 337 337 334 333 331 327 325
363 364 364 362 362 364 363 365 367 366 368 368 367 364 365 365 364 363 362 363 363 362 363 362 360 360 362 364 365 365 356 342 369 317 314 312 315 320 349 356 356 357 355 356 355 354 354 355 356 336 320 317 314 312 313 316 322 350 349 331 327 328 349 347 344 342 340 340 339 337 337 337 336 336 336 336 334 334 333 333 333 331 330 329 327
366 366 365 362 363 364 365 364 366 366 367 368 368 365 365 365 365 366 365 365 364 362 363 363 362 362 362 363 364 365 368 362 335 336 313 312 312 316 325 343 334 357 356 355 356 355 356 358 355 327 318 314 311 311 312 315 319 339 324 316 319 326 339 344 343 340 339 338 337 335 335 334 334 333 333 332 332 334 333 333 332 331 331 328 328
366 364 364 362 362 362 362 363 365 366 365 366 366 365 364 364 365 365 365 363 360 359 359 360 359 357 356 359 359 359 367 364 338 325 324 310 312 312 317 323 329 351 357 357 358 357 357 357 351 318 313 309 309 311 313 315 329 320 311 318 321 329 343 341 340 339 338 335 334 334 333 333 333 332 331 333 333 336 333 332 332 329 330 329 329
363 361 362 361 362 361 361 363 365 365 365 365 365 364 364 364 363 365 364 361 360 360 359 359 356 356 356 356 358 360 362 362 365 336 318 313 312 312 315 319 321 323 350 356 357 357 340 331 321 311 312 310 310 311 313 314 317 314 313 318 328 342 341 340 338 336 334 333 332 333 332 334 334 334 336 335 335 334 332 330 330 330 330 331 331
362 361 361 362 362 361 362 363 366 366 365 363 364 364 363 362 361 363 362 360 360 358 358 356 356 357 356 357 357 358 361 362 363 358 325 319 316 313 315 317 320 321 331 350 337 332 327 320 314 314 312 316 322 328 330 327 317 316 316 324 339 339 339 338 338 335 333 332 332 331 332 332 332 335 336 335 332 329 329 327 327 326 328 327 327
361 361 361 361 364 364 362 362 362 364 365 362 363 363 362 361 362 361 363 360 360 358 357 356 357 356 356 357 358 359 359 360 362 361 345 338 334 329 322 325 317 321 331 347 337 348 333 327 328 320 321 318 324 323 324 320 322 324 330 336 339 339 338 339 336 335 335 332 332 331 332 332 334 334 332 331 330 329 329 327 325 325 327 325 324
359 359 359 359 360 362 361 363 362 361 363 362 359 360 362 362 361 361 361 361 359 358 358 356 356 357 356 356 358 358 358 359 359 361 354 346 343 341 336 335 335 336 340 347 353 353 339 321 318 327 325 326 328 329 328 328 329 330 334 336 337 337 337 335 335 337 337 335 333 333 333 334 331 330 329 329 325 326 328 327 326 326 323 325 322
362 361 360 360 359 362 360 361 359 359 361 365 364 362 360 362 365 362 365 364 363 361 361 359 359 360 358 358 357 357 359 358 361 339 362 331 343 347 344 340 340 340 333 328 349 346 334 330 329 326 325 326 326 326 327 329 331 333 335 336 336 336 336 334 333 334 334 333 332 333 330 329 329 328 326 323 325 327 330 329 329 327 327 324 320
362 361 361 361 361 359 359 358 359 357 357 358 360 359 325 313 335 367 364 323 313 314 327 358 358 360 362 364 366 362 361 364 334 320 317 314 317 321 325 323 323 334 327 322 332 336 330 328 327 325 326 326 325 326 327 330 330 332 334 329 334 333 334 334 334 333 334 332 333 329 328 328 327 324 323 323 325 327 328 324 328 327 325 321 319
356 355 356 356 355 360 359 359 363 362 361 359 360 362 361 353 308 303 318 328 316 308 310 315 315 318 340 352 351 332 325 319 316 317 313 308 309 312 313 314 314 316 317 327 333 333 327 325 325 326 327 327 326 327 328 329 329 330 332 333 333 331 329 331 332 331 330 331 330 328 328 326 323 323 323 324 325 325 326 326 326 327 324 321 318
352 352 352 352 351 354 356 358 357 358 359 361 363 361 359 358 349 320 307 313 310 304 305 301 298 300 301 306 314 332 323 314 309 306 305 306 307 308 309 310 310 311 313 318 332 329 327 325 325 326 327 327 327 327 328 328 328 330 331 330 330 330 329 330 329 332 331 330 329 326 326 323 323 324 324 324 323 323 325 323 322 322 321 319 319
351 351 351 349 348 349 349 351 353 354 353 354 354 355 354 352 351 343 343 313 308 309 303 300 300 300 300 299 298 301 303 303 300 299 301 303 304 305 307 308 308 308 310 322 333 328 329 328 328 327 327 328 328 328 328 328 329 329 329 329 329 329 330 331 329 330 329 329 329 325 324 322 323 323 322 322 323 323 322 321 320 320 319 318 318
348 348 348 349 350 349 349 350 351 351 353 354 354 353 350 346 341 342 338 343 348 321 301 301 301 303 305 302 300 300 299 298 298 298 298 299 301 303 304 311 306 305 313 329 332 328 329 329 329 328 329 329 329 328 328 329 329 328 328 329 330 330 331 333 332 329 328 327 326 324 324 323 323 323 323 323 323 321 320 319 319 318 317 318 318
344 342 342 346 347 347 347 348 348 350 350 348 345 343 344 343 343 343 342 340 340 338 338 339 313 303 314 311 307 299 297 296 296 295 296 298 299 300 301 313 313 310 315 332 332 330 329 329 329 329 329 328 328 328 328 329 329 328 328 328 329 328 329 331 331 330 328 328 325 324 324 324 323 324 324 322 321 319 319 318 317 319 318 318 317
341 342 343 343 343 344 345 346 346 345 345 346 347 343 341 341 340 340 336 339 338 336 334 335 335 320 307 304 303 298 295 295 295 296 296 296 297 298 312 317 318 317 319 329 331 330 330 330 330 329 329 328 328 328 329 329 328 329 329 330 328 327 329 329 329 330 329 327 324 324 321 325 324 323 324 323 322 321 319 319 318 318 318 317 318
340 339 340 341 342 342 343 344 343 342 338 340 344 342 341 341 342 341 341 338 337 336 336 338 340 340 323 333 321 308 299 296 297 296 297 298 296 305 317 321 320 319 321 328 330 329 329 329 329 328 328 327 328 328 328 328 328 328 325 330 329 328 328 328 328 329 328 326 325 326 326 324 325 325 323 322 320 320 320 319 319 318 318 315 312
338 338 340 341 342 342 342 341 338 335 340 340 342 343 340 342 342 338 336 337 335 336 338 337 330 336 336 336 337 334 329 311 302 306 304 300 311 317 319 323 324 323 324 329 328 328 327 327 328 327 327 327 327 326 327 327 327 328 328 329 328 328 324 327 327 328 329 327 325 327 327 326 325 324 322 322 320 320 319 320 318 317 315 311 312
337 327 326 328 333 340 339 339 340 340 340 340 340 340 339 340 341 339 338 337 336 335 335 336 336 334 334 334 335 336 335 338 335 333 333 333 331 326 323 326 326 327 328 326 325 326 326 325 325 326 326 326 326 327 327 328 328 328 329 329 328 327 326 327 327 328 326 326 327 328 327 326 325 325 323 321 320 320 319 318 317 315 313 311 310
338 339 333 329 336 337 339 341 340 340 339 338 339 339 339 339 339 338 339 336 334 334 334 334 333 333 329 327 327 329 337 336 334 333 334 333 330 330 328 324 322 322 323 324 325 325 325 325 326 325 326 326 326 327 327 328 329 329 329 327 325 325 326 327 328 327 326 326 327 327 326 325 323 322 322 320 319 319 319 317 315 315 314 313 314
339 339 339 335 335 339 341 339 339 339 340 340 340 338 337 336 337 336 336 333 333 333 331 330 330 329 323 314 305 308 333 335 335 333 331 330 331 331 327 324 323 322 322 323 324 325 325 325 326 326 326 326 327 326 327 328 327 327 327 326 326 325 326 327 327 327 326 326 325 324 324 323 321 321 318 319 315 316 317 316 316 313 313 313 312
340 339 340 339 338 341 339 338 339 338 341 341 340 338 337 337 336 335 333 332 330 330 330 330 330 331 318 306 305 305 328 332 332 332 332 331 329 327 326 324 323 322 323 323 323 323 324 324 325 326 326 326 326 326 326 326 326 326 326 326 325 325 325 325 325 325 325 323 323 322 321 320 319 318 318 313 316 316 316 314 314 313 313 312 312
339 338 339 338 338 338 338 338 340 339 339 339 337 337 336 337 337 334 332 331 330 330 330 331 332 333 329 315 317 315 330 330 329 329 330 330 329 327 326 325 324 324 324 324 325 325 325 325 325 325 326 327 327 326 326 325 326 325 325 324 324 323 323 323 322 322 322 322 321 320 320 319 317 317 316 316 316 315 314 314 313 313 313 313 313
337 337 336 336 336 337 338 338 336 338 337 337 337 337 339 338 336 336 336 334 332 333 332 333 333 334 335 330 326 328 330 329 328 328 327 327 327 326 325 325 324 323 323 324 325 326 326 325 325 326 327 328 328 329 329 329 328 326 324 323 321 321 321 321 321 321 321 320 320 319 318 318 317 316 314 314 315 314 313 314 313 312 312 312 311
337 337 337 337 336 335 334 338 337 337 337 335 338 336 336 337 335 335 334 334 332 332 332 333 333 333 332 333 334 333 332 331 329 329 328 328 328 327 327 328 328 327 327 326 326 326 325 325 326 326 325 327 328 327 326 326 325 324 323 322 321 320 320 321 321 321 320 320 318 318 318 317 316 315 314 314 315 314 313 313 313 312 311 311 311
334 334 333 334 333 334 335 336 335 338 337 336 335 337 335 336 336 334 333 333 334 333 331 332 332 331 331 332 332 332 332 333 331 331 330 329 328 327 328 332 332 330 330 330 329 329 328 328 327 326 326 326 326 326 325 325 324 325 325 324 322 321 321 322 322 320 320 320 318 317 316 316 316 315 315 314 313 313 314 314 314 312 311 310 309
332 333 331 331 330 330 332 335 333 334 336 335 335 334 334 334 335 333 331 333 332 332 332 333 332 331 330 331 331 332 332 331 332 332 331 331 331 330 331 331 331 331 330 329 329 328 327 327 327 326 326 326 326 326 325 325 324 323 323 322 322 322 322 321 321 320 319 319 319 318 316 315 314 315 313 313 315 313 314 313 312 312 311 309 309
331 330 330 330 330 329 330 331 331 330 333 332 331 332 331 331 332 331 332 332 331 331 331 333 334 331 329 331 331 330 331 331 333 333 333 334 334 333 332 333 332 331 331 330 330 329 329 328 328 327 326 326 326 325 325 324 324 323 322 322 322 322 320 314 322 321 322 321 319 318 318 316 315 315 314 314 313 313 312 311 311 310 310 310 309
328 328 327 326 326 326 326 327 327 328 329 330 329 329 329 330 328 328 329 329 330 331 334 332 333 332 332 330 329 329 329 329 332 332 332 334 335 335 334 333 332 332 332 330 330 330 329 328 327 327 326 326 326 325 325 324 323 323 322 323 320 304 304 308 315 321 316 320 319 318 318 317 316 315 314 314 312 312 312 311 310 310 309 309 308
325 324 324 323 323 322 322 323 324 325 325 326 325 325 325 326 327 327 328 327 326 327 329 331 331 332 331 329 328 328 330 328 329 331 333 335 334 334 335 334 334 334 333 332 331 331 331 330 329 327 326 326 326 326 324 324 323 322 324 323 300 299 300 301 303 304 315 320 319 318 317 316 315 314 313 313 313 311 311 310 309 309 308 307 307
320 320 320 319 319 318 318 318 317 317 318 319 320 319 318 320 321 321 323 324 325 324 326 327 327 329 331 330 328 330 329 329 329 330 330 332 333 332 333 333 331 333 334 333 332 332 332 331 329 327 327 325 325 325 325 323 323 324 311 299 296 297 298 304 316 301 304 308 319 316 315 314 313 312 311 311 310 310 309 308 308 308 307 305 306
Wind_Speed
21 20 18 19 19 20 20 19 19 17 17 16 15 15 14 14 14 13 12 13 12 13 13 13 13 13 13 12 13 12 12 12 11 11 11 12 11 10 10 11 13 11 10 10 10 10 10 11 10 10 9 9 8 7 8 8 8 8 7 7 7 7 8 7 8 7 6 5 4 5 3 3 5 5 6 6 6 6 7 6 6 7 7 8 8
20 19 19 18 21 21 21 19 19 17 18 16 16 15 15 14 14 13 14 13 13 14 14 13 13 14 14 13 13 13 13 12 13 12 12 12 12 9 10 12 13 12 10 11 11 9 10 11 11 11 10 10 9 9 8 8 9 9 9 8 8 8 8 8 8 7 7 5 5 5 5 5 6 6 6 7 7 7 8 7 6 8 7 6 7
21 19 19 19 21 20 19 19 18 19 20 18 18 18 16 16 15 15 15 14 14 14 14 14 14 14 14 13 13 13 13 13 12 12 13 13 13 12 11 12 13 13 12 12 12 11 11 11 12 11 9 11 11 9 9 9 8 9 9 8 9 9 8 9 8 8 8 7 6 6 6 6 6 6 7 7 6 6 7 8 8 7 7 7 6
20 20 20 21 21 20 20 19 21 20 20 18 20 19 17 16 16 16 16 15 15 14 14 15 14 14 14 14 14 13 14 13 13 13 14 14 13 13 13 13 13 13 13 13 13 12 12 12 12 12 11 11 11 10 9 9 9 8 9 9 8 9 8 8 9 8 7 7 6 6 5 6 6 6 5 6 7 7 7 7 8 7 7 7 6
20 21 21 22 22 21 22 21 20 21 21 19 21 20 19 17 16 17 17 17 16 14 14 14 14 14 14 15 15 15 14 14 14 14 13 13 13 13 13 13 13 13 13 13 13 13 13 13 12 12 12 12 11 11 10 11 10 9 9 9 8 8 8 8 8 9 8 8 6 6 6 5 5 5 6 6 7 7 7 8 8 8 8 7 6
21 21 20 21 21 23 22 21 22 22 22 21 21 20 19 19 18 16 18 18 17 16 15 14 14 15 15 15 15 15 14 14 15 14 15 14 13 13 13 13 13 13 13 14 13 13 13 13 13 13 13 13 12 12 11 12 11 10 10 9 9 8 9 9 8 8 9 8 8 7 6 7 6 6 7 7 7 7 7 8 8 8 7 8 7
20 21 21 21 20 22 21 21 21 21 20 19 18 19 19 20 20 18 17 18 18 18 17 16 14 15 15 15 15 15 15 15 14 14 14 14 14 14 14 14 14 13 13 14 14 14 14 13 13 14 14 14 14 13 12 12 11 12 11 10 9 9 9 9 9 9 9 9 9 8 7 7 7 7 7 7 8 7 8 8 8 8 7 8 7
20 20 20 19 20 22 21 21 20 19 18 18 18 19 19 19 19 17 16 18 18 19 18 17 16 15 15 15 15 14 14 14 15 15 14 14 14 14 14 14 14 13 13 14 14 14 15 15 14 15 15 14 14 13 12 12 10 11 10 10 10 10 10 9 9 9 9 9 9 8 8 8 7 7 6 6 7 7 8 8 9 8 8 7 8
20 21 20 19 19 19 18 17 17 17 18 18 19 19 18 18 17 17 16 16 16 18 18 17 16 16 15 15 15 14 14 14 13 14 15 15 14 14 15 15 14 14 13 14 14 14 14 14 14 15 15 15 16 13 13 11 10 10 10 10 11 10 10 9 9 9 9 9 9 8 8 8 8 8 8 8 9 9 7 8 8 8 7 7 6
19 19 20 18 17 17 17 16 17 18 18 19 19 19 18 17 17 18 17 17 16 15 16 16 17 16 16 16 15 14 13 12 14 18 16 13 14 13 13 14 14 14 13 13 14 14 15 14 14 16 14 16 15 15 13 13 13 11 9 10 11 10 10 10 9 9 9 10 10 9 10 10 9 9 9 9 8 8 8 8 8 7 7 7 6
18 19 18 17 16 16 17 17 17 18 19 18 18 18 18 16 16 16 16 16 16 15 15 17 17 16 17 16 16 14 13 13 17 18 19 18 14 14 14 13 14 14 14 13 13 14 13 14 13 13 13 12 15 16 15 14 14 14 10 8 10 11 11 11 10 10 10 10 9 10 10 10 10 9 9 8 8 8 8 7 8 7 8 8 7
19 18 18 16 16 18 17 17 17 18 17 18 18 17 17 17 16 17 16 17 16 15 16 17 17 16 15 16 17 15 15 15 19 20 20 20 18 14 13 13 13 14 14 14 13 13 13 13 13 11 12 15 14 14 15 16 15 14 14 11 9 11 10 10 11 11 11 11 10 10 10 10 9 8 9 8 7 7 7 7 7 7 8 8 7
17 16 16 16 16 16 15 16 17 17 18 18 17 16 17 17 17 17 18 17 16 16 17 17 17 17 16 16 17 16 16 17 20 21 22 22 21 19 14 13 13 13 14 14 14 13 12 12 12 11 10 15 14 14 13 14 15 16 15 14 12 10 10 11 9 9 10 11 12 11 11 9 9 9 8 7 5 7 6 6 7 8 7 8 6
15 16 16 16 16 16 16 17 17 17 17 16 16 17 18 19 18 17 15 15 16 16 17 18 16 16 16 17 16 16 17 16 21 22 22 23 22 19 15 14 13 13 14 14 13 14 13 12 12 12 11 12 13 14 13 12 13 13 12 12 12 14 14 13 14 13 11 10 11 11 10 10 9 8 7 5 7 7 6 7 6 7 8 7 6
16 16 17 17 16 16 17 17 17 16 15 16 16 17 18 16 17 16 15 16 16 16 16 17 16 17 17 17 16 16 16 17 21 23 22 23 22 19 16 15 13 13 13 13 13 14 14 13 13 13 13 13 12 15 13 13 11 11 13 14 14 13 14 15 15 13 12 13 13 12 10 9 9 8 6 5 7 6 6 7 6 6 5 6 7
16 15 16 17 18 19 19 18 17 16 16 16 17 17 17 17 17 16 15 14 14 14 15 16 17 17 17 17 17 18 17 18 21 23 24 23 23 15 16 17 16 14 14 14 14 14 15 14 14 14 13 14 14 18 15 12 12 12 12 12 12 12 12 12 13 12 12 12 12 13 12 6 1 5 5 6 5 4 2 3 5 6 7 7 8
18 17 17 18 18 18 18 17 16 16 16 17 18 18 18 18 17 14 16 16 16 16 17 17 16 17 18 18 19 17 17 16 21 23 24 24 19 14 16 16 16 16 15 14 14 14 15 17 16 14 14 14 15 20 18 15 12 14 14 13 12 11 12 8 8 8 6 7 9 10 10 10 8 9 7 3 4 4 5 6 8 7 6 9 6
17 17 16 16 16 16 16 16 15 16 16 17 18 18 17 15 16 15 16 16 17 17 15 15 16 17 19 20 19 18 18 17 22 23 24 25 22 17 15 15 16 15 16 15 14 14 17 18 18 17 15 14 18 21 20 16 14 14 13 12 12 11 11 9 7 6 7 7 6 5 7 8 8 8 8 8 4 2 8 9 9 8 8 7 6
18 17 16 14 14 15 15 16 16 17 18 18 17 17 16 15 14 14 15 16 16 15 14 15 15 16 18 20 18 19 18 16 22 23 25 25 21 15 15 15 15 16 15 15 17 17 15 14 18 19 17 13 21 21 21 19 15 15 13 12 12 13 12 11 10 9 7 8 6 5 5 6 7 7 7 5 4 7 8 8 7 5 6 6 8
13 12 12 13 14 14 14 16 17 17 17 16 15 15 14 14 16 16 16 15 14 15 15 15 17 16 17 18 15 19 19 15 16 23 24 24 26 17 15 15 16 18 17 16 16 17 17 14 15 21 17 14 20 21 22 21 16 14 13 12 12 14 12 11 11 9 7 9 9 9 9 8 8 8 7 7 7 8 9 8 7 7 6 8 8
10 12 13 14 14 15 15 16 17 16 15 15 15 15 15 16 16 16 16 15 15 15 17 17 16 16 16 16 16 18 17 18 14 25 24 26 28 24 16 17 17 16 17 17 16 16 17 17 13 19 20 17 20 21 22 21 17 13 13 12 12 11 11 10 10 12 8 8 8 8 7 8 7 7 7 7 8 9 9 8 7 7 7 7 6
10 11 13 13 14 14 15 14 13 13 13 12 12 13 13 13 14 15 14 14 15 16 15 15 14 14 14 14 15 15 14 16 10 20 24 25 26 30 19 19 18 16 16 16 17 16 17 16 15 17 24 20 21 21 22 21 20 11 13 12 7 11 10 9 11 10 9 9 9 8 8 7 8 8 8 8 9 8 8 8 8 7 5 6 4
10 11 11 13 12 13 13 14 12 11 11 12 13 13 12 13 13 13 13 13 14 15 15 14 14 13 12 12 14 13 13 10 14 14 21 23 26 27 27 19 18 16 16 17 18 17 16 15 15 20 24 22 21 22 22 24 19 12 14 11 12 12 10 11 10 11 11 10 9 9 8 9 10 10 10 9 8 8 9 8 6 6 5 1 2
9 10 10 11 11 11 12 13 12 12 13 12 13 13 13 13 12 11 12 12 14 15 15 14 14 15 16 14 16 15 11 12 13 19 19 25 23 27 27 26 19 17 17 15 15 16 15 17 15 22 23 22 22 22 22 21 14 17 13 16 14 12 9 10 10 11 11 10 9 9 9 9 8 9 8 6 9 8 5 4 5 7 5 4 4
7 9 9 10 11 11 11 11 12 12 12 12 12 13 14 13 12 12 12 13 14 13 13 14 14 14 15 15 15 15 14 14 13 15 24 25 27 27 28 28 23 19 16 18 18 17 18 16 17 22 22 22 22 20 18 20 20 17 17 18 15 10 11 11 11 11 11 11 11 10 9 6 5 7 8 10 6 7 7 6 7 6 5 4 4
7 8 8 9 10 11 11 12 12 12 12 12 12 12 13 13 13 11 12 12 13 14 13 14 14 14 14 16 15 15 14 13 14 10 14 20 23 27 31 30 29 24 21 20 19 15 14 15 21 21 21 18 14 11 9 11 16 17 18 17 12 12 12 12 11 11 12 12 11 10 9 8 8 7 5 5 6 9 8 8 7 7 6 6 6
6 7 8 8 9 9 10 10 10 10 12 11 11 11 11 12 12 12 11 12 12 13 14 14 13 13 15 15 14 14 14 15 14 11 9 11 12 15 18 17 23 23 16 15 16 13 9 14 13 15 13 18 16 14 13 14 12 11 10 12 11 11 11 9 11 12 11 11 11 11 9 8 7 7 7 8 8 8 8 8 8 7 7 6 6
6 6 7 7 7 8 9 9 9 9 10 11 11 10 10 11 11 12 11 11 12 12 13 14 14 14 14 14 14 14 14 14 14 15 9 10 10 10 12 13 13 14 15 15 14 11 8 10 15 11 12 12 11 8 9 9 10 11 12 12 11 10 10 11 10 10 9 10 11 10 8 7 9 9 10 10 9 9 9 8 7 7 6 6 6
4 6 6 6 6 6 8 8 9 8 8 9 9 6 6 10 11 11 10 9 10 11 12 12 12 13 13 13 13 13 13 15 14 13 10 15 16 14 15 15 14 12 17 16 12 7 7 9 10 12 12 14 12 11 11 10 11 13 14 12 10 8 9 9 10 9 9 9 8 8 8 9 9 10 10 10 9 9 8 8 7 6 5 5 7
5 5 4 4 4 5 6 6 7 7 7 7 8 5 9 15 11 2 2 6 12 11 8 3 4 5 5 5 7 11 13 12 9 10 9 16 21 23 21 21 21 19 20 21 17 9 11 11 11 13 15 13 13 13 13 13 14 13 13 12 10 10 9 9 10 9 9 10 9 10 10 10 10 11 10 10 9 8 8 8 7 6 6 7 8
5 5 5 4 3 2 2 2 3 3 2 3 6 7 6 7 12 14 11 9 9 7 4 2 4 6 6 8 10 11 14 17 20 21 15 13 17 21 21 21 23 22 24 22 17 14 12 13 12 13 14 14 14 15 15 15 14 15 15 11 8 10 12 10 9 8 8 9 9 11 11 11 11 11 11 10 10 9 8 7 7 7 7 8 8
6 6 6 6 6 6 4 3 2 3 2 2 3 3 3 5 5 6 5 4 6 5 6 11 11 10 9 6 6 9 14 16 17 16 15 12 16 21 24 25 25 25 26 28 19 16 15 15 14 14 15 15 16 16 15 15 16 15 12 11 11 9 12 13 12 10 10 10 10 10 11 11 11 11 10 10 10 9 9 8 8 8 8 8 7
6 6 6 7 7 7 6 6 5 3 4 3 3 1 3 4 4 5 2 2 2 8 13 13 11 11 10 10 7 8 12 16 18 20 20 18 18 22 25 26 25 27 27 21 17 17 18 19 19 18 18 19 18 16 15 15 16 15 13 12 11 9 8 9 11 10 10 10 10 11 11 11 11 10 10 10 10 8 9 8 8 8 9 8 7
8 6 6 6 6 6 6 6 6 6 5 5 4 4 4 5 5 5 5 5 5 6 9 9 9 9 9 10 12 13 14 14 16 17 18 18 17 18 19 19 21 25 27 21 18 16 19 21 21 20 19 18 17 17 16 15 15 16 14 12 11 10 8 7 7 7 9 10 11 11 11 11 10 10 10 9 10 9 8 8 9 9 8 7 7
9 10 10 6 6 6 6 6 6 5 7 7 6 7 6 5 4 4 4 4 5 4 3 3 5 5 4 6 9 11 12 15 16 16 16 15 13 14 13 12 12 13 19 20 19 19 20 19 19 19 19 17 16 17 16 16 15 14 14 13 11 11 11 10 8 8 10 11 11 11 11 11 11 10 10 10 10 9 9 9 9 8 7 7 7
7 6 6 6 6 6 6 6 5 7 8 7 5 6 5 4 4 4 4 4 4 4 3 3 3 3 5 8 7 8 11 11 9 9 9 9 10 9 8 12 13 16 18 17 16 21 23 20 16 14 14 13 12 12 11 10 10 11 12 13 12 11 10 10 8 8 10 10 11 11 11 10 10 10 9 9 10 9 8 9 7 8 8 7 6
7 6 5 5 5 6 6 6 6 6 6 5 5 5 4 4 4 4 4 4 3 2 1 1 2 2 6 1 5 6 7 8 9 8 2 4 9 10 9 11 13 14 16 17 15 12 9 9 14 13 13 13 13 13 12 11 11 11 10 10 10 11 10 11 11 12 11 10 10 10 10 10 10 10 10 10 9 9 9 7 7 7 7 7 6
9 7 6 5 5 5 6 6 7 5 5 5 5 4 4 4 5 5 4 4 2 2 2 2 3 4 6 6 6 6 7 6 8 6 3 1 2 4 5 3 4 8 12 11 7 5 12 16 14 14 14 15 15 13 13 11 9 9 9 9 9 9 12 11 11 12 10 9 10 9 9 9 9 10 10 10 8 8 8 8 8 8 7 6 6
9 7 9 10 7 5 5 6 6 5 5 5 5 4 3 3 4 4 4 4 3 3 3 3 4 5 7 8 8 9 5 6 9 10 11 12 7 5 7 4 1 4 5 2 4 11 19 16 15 14 14 13 13 13 12 12 10 9 9 9 9 9 10 9 9 9 9 8 8 8 8 9 10 10 9 8 8 8 8 8 8 8 8 8 8
8 7 4 5 7 6 6 5 5 5 4 4 4 4 4 3 3 4 4 4 3 3 3 3 5 6 8 10 10 10 7 6 8 10 10 9 10 9 8 12 14 16 12 9 9 8 10 14 14 13 13 13 13 12 11 12 11 10 9 9 9 9 9 8 9 9 8 8 8 9 10 9 7 7 7 8 8 8 8 7 8 8 8 8 8
8 7 7 4 4 6 5 5 5 4 4 4 3 3 4 3 4 4 4 3 3 2 2 3 4 5 7 9 12 11 6 6 6 8 9 8 6 7 8 9 14 16 13 12 9 8 9 9 10 12 12 12 12 12 10 10 11 11 10 9 9 8 8 8 8 8 8 8 9 8 8 7 8 8 8 8 7 7 7 7 7 7 7 7 6
7 7 5 6 5 6 6 6 5 4 4 4 3 4 4 4 4 4 4 3 3 2 2 3 3 5 9 13 12 12 8 7 7 7 8 9 9 8 6 7 11 13 13 12 9 5 4 7 8 9 11 10 10 10 10 10 9 9 10 9 9 9 8 9 9 9 9 8 8 8 8 8 7 7 7 6 7 7 6 7 7 7 8 8 8
8 7 7 7 6 6 6 6 5 5 4 4 5 4 3 3 4 4 4 3 2 2 2 2 2 3 5 6 9 8 7 7 8 8 8 8 9 10 10 9 7 8 10 11 10 8 6 6 7 8 9 10 10 10 11 10 10 10 9 9 9 10 9 9 9 9 8 8 8 8 8 8 7 7 7 7 7 7 7 7 8 7 8 7 7
7 7 7 7 7 7 6 6 5 5 4 4 4 4 2 2 3 3 4 4 3 3 2 2 3 3 3 3 5 6 6 5 6 6 7 7 8 9 9 8 7 8 9 9 7 6 7 7 7 8 8 8 8 8 9 9 10 10 10 10 9 9 9 9 9 9 8 8 8 8 8 7 8 7 8 7 7 7 7 8 8 8 7 8 7
7 7 6 7 7 6 6 6 5 4 3 2 2 3 2 2 2 3 3 4 4 3 2 2 2 2 3 4 5 5 5 5 4 4 4 5 6 7 7 7 7 7 8 7 7 7 8 9 8 7 10 8 8 8 8 9 9 9 9 10 10 9 9 9 8 8 8 8 8 8 8 8 8 8 7 7 7 7 7 7 8 8 8 8 7
7 6 6 6 6 6 6 6 6 5 5 4 3 2 2 3 3 3 3 3 3 2 3 2 3 3 3 3 3 4 4 4 4 3 3 4 5 6 5 4 4 5 6 7 7 7 7 8 8 8 9 9 9 9 9 9 9 9 9 9 9 9 8 8 8 8 8 8 7 8 8 8 8 7 7 6 7 7 7 7 8 8 8 8 7
6 6 6 5 5 5 5 6 6 6 6 6 5 4 3 3 3 4 4 3 2 2 1 2 3 3 3 3 3 3 3 3 3 5 4 5 5 5 4 5 4 5 6 6 6 6 7 7 7 8 8 9 9 10 10 9 9 9 9 8 8 9 9 8 8 8 8 7 7 7 7 7 7 7 7 6 6 6 7 7 7 8 7 7 7
6 7 7 7 7 6 5 5 5 5 5 5 5 5 4 4 3 3 3 3 2 2 2 3 2 2 2 2 2 3 3 4 4 4 6 5 5 6 5 6 6 5 5 6 6 6 6 7 7 8 8 9 9 10 9 9 9 9 8 9 9 8 9 10 8 8 7 7 6 5 6 6 6 6 6 7 7 6 6 7 7 7 7 7 7
9 9 9 9 9 9 8 7 7 6 5 4 5 5 5 4 4 4 4 5 4 4 3 3 2 2 2 3 3 3 4 4 4 4 4 5 5 6 6 5 7 6 6 6 6 6 6 6 7 8 8 8 9 9 10 9 10 9 9 8 9 16 14 10 8 7 6 6 6 5 4 5 5 5 6 6 7 7 6 7 7 7 7 7 7
10 10 9 9 9 9 9 9 9 9 9 9 8 8 7 6 5 5 5 5 5 4 3 3 3 2 2 3 3 3 3 4 4 4 4 4 4 4 5 5 5 5 5 6 6 6 6 6 7 8 8 8 8 9 9 9 9 10 9 9 14 15 13 11 11 13 8 6 5 5 5 5 5 5 5 6 6 7 7 7 7 7 7 7 7
11 11 11 11 11 10 10 10 10 10 10 9 9 9 9 9 9 9 8 7 6 6 5 5 6 5 5 4 4 4 4 4 3 3 3 3 3 3 4 4 4 4 5 5 5 5 6 6 7 7 8 8 9 9 9 9 9 8 11 16 15 14 13 11 9 8 4 1 4 4 4 5 5 6 6 6 7 7 7 7 7 8 7 7 7
Wind_Direction
192 195 194 196 195 195 197 198 201 203 206 203 204 204 204 206 207 208 202 206 203 202 203 204 203 205 208 208 210 207 204 201 199 197 197 205 210 202 207 209 213 213 205 205 206 205 203 205 207 207 208 210 211 210 208 203 208 215 214 215 221 216 220 221 232 233 236 226 242 256 226 229 207 214 222 213 188 198 224 216 194 208 213 230 191
194 193 195 196 197 198 197 196 198 202 205 203 204 203 204 204 205 204 205 203 203 203 203 204 204 205 208 208 208 209 205 202 198 196 197 198 200 195 202 205 213 214 204 207 205 206 201 205 208 209 209 215 215 213 211 208 205 210 210 214 218 220 211 223 224 240 243 202 223 239 240 201 247 202 222 223 212 195 210 218 214 218 231 226 240
193 191 192 194 197 197 197 197 196 198 201 202 203 204 203 204 202 203 205 205 203 207 204 206 203 205 208 207 205 207 205 202 200 197 196 197 197 198 199 199 206 206 204 207 206 203 203 205 209 209 210 214 217 219 216 215 213 214 214 212 219 221 213 214 227 231 236 239 224 221 216 211 228 210 211 227 236 222 217 222 219 221 226 241 241
191 191 193 197 196 194 196 198 199 199 202 203 204 205 204 203 201 204 205 208 205 205 207 206 204 203 205 206 205 204 203 202 203 202 200 198 198 198 198 199 199 203 205 207 206 204 205 205 210 209 210 213 214 216 219 216 215 216 218 219 217 223 223 212 220 236 240 247 228 230 223 213 208 232 215 219 231 227 229 231 231 232 227 221 228
191 192 194 195 195 196 198 199 200 202 204 205 205 205 206 205 203 205 205 209 208 203 205 206 205 204 205 205 204 203 203 203 204 205 204 202 201 200 200 200 202 202 205 207 208 207 206 208 207 207 208 211 212 216 216 214 214 215 217 216 218 218 223 220 218 223 234 242 245 225 234 228 223 217 215 220 224 229 222 233 229 229 227 236 237
192 192 193 195 195 197 198 199 203 204 205 207 207 206 207 208 205 203 206 207 206 207 203 204 204 205 206 205 204 204 204 204 204 206 207 205 203 204 202 202 203 203 204 206 207 208 210 209 208 206 206 208 212 213 214 214 212 216 217 217 216 217 219 220 220 221 228 237 240 242 217 231 223 221 216 220 234 230 229 225 231 231 228 227 232
192 193 193 194 195 197 196 198 200 204 204 207 207 207 208 207 207 206 204 207 206 206 205 204 203 205 205 204 205 204 205 205 205 205 208 207 205 205 205 204 205 205 206 208 209 209 210 210 210 209 208 209 212 213 210 211 212 214 216 216 217 218 217 220 218 222 226 230 232 236 241 225 228 232 219 221 236 247 248 238 230 221 224 227 229
192 194 194 195 195 197 196 197 199 199 201 202 205 207 207 207 207 206 204 206 208 206 206 203 204 204 204 204 204 204 204 205 205 205 207 207 206 206 206 206 207 207 207 209 211 212 211 212 213 211 210 210 212 212 210 209 208 213 211 212 215 216 221 219 220 223 224 227 232 233 225 235 223 232 236 219 228 234 235 248 254 244 231 217 231
193 194 194 195 195 193 192 194 196 196 197 199 203 206 207 206 205 204 204 206 207 208 208 205 203 203 203 204 204 203 205 205 206 204 205 206 207 207 207 208 208 208 208 209 210 212 213 214 216 216 209 210 206 210 210 206 207 207 209 208 211 214 216 221 220 222 224 228 230 226 233 228 228 229 223 221 225 233 238 233 246 250 250 239 220
195 195 196 196 192 187 188 190 192 193 195 197 200 203 205 205 205 205 205 205 205 206 207 207 206 203 203 204 204 204 205 207 201 197 199 203 203 207 209 211 212 211 208 209 210 210 212 215 215 214 206 198 201 203 208 203 207 215 207 205 207 209 212 216 220 219 224 230 229 228 226 227 227 225 231 229 230 235 242 240 242 243 244 249 253
195 195 197 194 187 183 185 189 188 192 195 195 198 199 202 203 204 203 205 204 206 204 205 206 208 207 206 205 205 206 206 207 189 189 194 198 203 206 208 210 210 211 210 208 210 209 210 213 220 201 199 194 198 198 202 207 202 212 222 214 209 209 209 213 219 219 223 228 230 233 232 233 231 228 228 234 234 236 237 239 242 237 240 243 250
196 196 195 185 185 183 185 186 188 191 191 196 196 196 197 202 203 203 203 203 203 204 205 207 208 207 207 209 210 210 210 200 183 187 190 193 199 207 210 211 210 211 212 210 209 209 209 210 211 212 205 207 206 198 203 206 206 209 212 213 212 217 227 228 227 225 229 234 236 235 236 233 234 233 236 237 235 239 236 238 229 232 237 239 238
196 194 190 184 184 184 182 186 188 190 192 192 192 193 196 199 202 202 203 203 202 204 205 206 208 210 210 210 213 213 217 191 183 185 190 193 196 205 215 213 213 214 212 212 211 209 208 208 209 207 203 187 200 207 205 205 207 211 212 215 219 217 224 234 249 254 244 235 238 241 236 239 239 239 240 245 242 238 228 229 229 227 235 241 247
191 190 188 185 184 185 186 189 190 192 191 190 192 194 196 201 203 203 203 202 205 207 207 209 209 210 211 213 213 216 220 188 183 184 190 192 195 200 216 215 218 219 217 214 212 211 208 205 205 202 201 187 199 204 205 205 200 204 211 215 219 218 220 225 227 233 244 249 245 242 238 236 243 246 247 240 226 227 227 235 231 227 226 236 235
194 191 190 188 186 186 190 193 194 193 191 191 194 198 200 202 203 204 206 206 206 207 209 211 213 213 214 215 216 218 222 189 181 184 188 191 193 197 211 218 221 220 220 217 216 216 211 208 206 204 198 195 193 195 201 201 198 197 203 210 215 216 215 217 219 223 224 230 237 244 248 246 246 247 246 230 221 232 255 257 227 224 239 249 238
197 195 193 191 192 191 191 194 195 192 191 192 195 200 203 203 204 205 208 210 211 211 212 215 214 214 215 216 219 221 222 190 182 184 187 188 186 194 206 214 220 220 217 215 218 223 224 215 207 206 201 202 182 179 193 197 200 201 205 210 210 213 216 213 209 208 217 221 226 231 238 241 255 254 223 200 203 233 215 195 207 229 233 239 241
195 195 195 194 195 195 195 195 193 192 191 192 197 201 202 204 204 201 206 209 210 211 212 212 214 214 213 216 219 223 225 194 182 184 186 183 179 197 203 211 218 219 220 217 219 224 224 224 220 206 202 205 171 174 183 193 201 212 217 211 210 209 216 182 135 152 136 88 75 71 77 98 111 107 123 162 245 244 224 233 233 214 221 240 232
195 195 196 194 192 192 192 191 190 190 191 196 200 202 203 203 204 201 206 209 212 214 213 214 215 216 215 216 215 218 225 198 182 184 184 180 183 193 198 207 214 216 222 221 223 226 226 220 221 219 205 201 162 175 177 185 202 211 210 212 208 207 208 159 158 118 97 99 106 118 119 127 133 146 154 164 154 212 220 234 234 220 223 236 254
198 197 194 189 188 187 187 188 190 191 195 199 200 201 202 203 203 203 209 212 217 217 216 218 219 219 219 220 213 219 227 208 181 184 185 181 186 194 197 205 209 213 215 220 223 227 225 211 202 217 218 188 163 173 176 184 200 210 206 208 210 206 208 170 161 161 174 197 185 167 151 147 158 173 168 168 179 217 227 236 243 236 244 255 258
200 196 192 190 188 186 187 189 194 196 198 198 199 202 201 203 205 206 209 212 214 216 216 218 219 220 221 222 218 218 224 224 181 186 182 182 187 193 200 201 208 211 215 218 217 220 222 219 193 201 207 177 167 172 178 183 194 205 208 206 208 208 203 194 186 172 171 197 192 194 201 186 195 208 189 178 199 211 217 215 224 236 257 249 262
189 188 188 189 188 188 191 194 196 198 198 198 199 200 201 205 204 206 210 211 213 214 216 219 221 224 225 222 225 222 220 225 187 184 184 184 188 193 203 206 209 205 209 212 216 217 217 219 212 187 194 175 171 174 177 183 192 196 204 208 210 204 196 188 148 148 178 188 181 177 187 184 198 200 198 192 192 194 200 221 228 236 246 260 251
185 182 182 187 191 192 197 198 196 198 199 198 200 204 207 208 208 208 212 213 215 216 218 222 225 226 225 227 230 229 225 217 202 184 189 188 189 197 201 208 206 204 205 213 212 216 214 209 220 177 184 174 175 173 175 181 190 198 202 207 168 154 189 162 152 166 187 182 183 184 184 187 194 194 188 190 193 192 198 207 223 243 225 237 247
178 175 177 185 192 194 197 196 194 196 197 196 197 201 203 208 211 211 211 217 220 222 224 226 229 232 232 232 236 236 239 226 202 180 192 192 194 200 208 213 200 207 210 212 211 211 211 205 199 168 180 176 174 173 175 182 184 194 186 153 146 148 168 180 161 171 188 184 185 188 186 193 192 197 192 195 194 188 195 212 187 207 215 193 110
174 178 180 188 191 195 194 195 195 197 197 196 199 204 207 207 208 210 211 218 230 232 233 231 234 239 240 239 241 240 229 233 199 180 182 193 196 201 208 216 209 211 217 221 219 216 212 208 195 164 173 175 175 176 176 176 180 181 153 156 150 150 172 177 158 176 188 180 183 190 192 199 200 203 206 192 210 172 198 187 168 190 185 186 170
175 186 186 188 190 195 197 196 196 198 197 196 197 202 207 206 210 212 213 218 228 229 228 232 233 238 241 240 243 238 235 232 236 188 185 188 196 201 207 211 215 215 219 226 227 225 220 208 159 160 170 176 177 174 172 174 174 159 159 155 156 170 180 189 172 180 187 183 187 190 192 191 200 198 196 201 202 124 170 164 170 181 176 198 198
184 190 191 192 193 193 193 196 197 198 199 201 202 204 205 205 210 209 210 214 226 233 231 234 235 237 239 242 242 244 239 241 239 213 184 190 196 200 205 207 211 213 217 223 226 226 210 167 158 162 163 168 166 169 164 170 165 155 157 159 174 179 181 181 168 176 186 184 185 186 187 181 191 198 150 146 153 171 166 170 171 183 190 193 206
184 189 192 194 192 198 196 198 196 196 200 204 205 206 209 211 211 211 212 217 222 233 235 235 235 235 240 242 243 245 242 243 237 227 165 185 198 207 210 212 214 213 217 225 227 231 172 162 159 158 151 163 166 156 152 151 151 158 162 175 184 181 180 171 172 181 183 183 180 186 185 176 168 143 156 180 179 173 172 171 185 185 200 225 238
189 186 192 193 193 195 201 193 196 203 198 207 211 209 212 217 219 215 216 221 227 233 234 236 237 238 245 245 247 244 246 246 241 234 190 185 191 193 194 205 204 207 216 215 212 195 158 142 134 131 136 149 155 146 148 153 157 159 168 179 187 180 170 173 174 183 183 184 183 174 166 161 156 172 184 185 181 175 177 182 193 214 221 202 222
163 167 175 181 185 184 195 194 203 211 206 202 216 237 245 233 226 227 229 236 240 242 245 247 241 243 247 252 253 256 256 255 251 247 200 187 190 195 197 200 202 200 214 212 214 181 144 143 148 145 150 153 151 150 151 157 162 172 173 175 180 164 160 178 180 179 178 184 174 169 150 150 163 179 185 182 183 177 177 183 191 207 206 224 243
126 132 143 154 148 167 195 193 193 203 210 206 200 119 59 51 32 300 106 60 61 49 39 333 351 333 312 290 276 263 257 261 304 316 256 208 199 201 203 199 200 203 199 194 199 180 175 166 156 158 161 162 159 159 159 163 165 172 177 175 171 165 160 169 177 177 180 184 176 163 156 166 171 183 184 183 178 182 176 185 188 193 200 219 238
106 107 96 87 34 11 117 137 134 177 235 247 218 136 112 62 39 40 57 91 89 98 118 188 314 327 330 295 289 283 283 284 282 274 269 242 217 212 213 208 201 196 186 190 197 185 165 164 163 164 168 172 167 162 160 166 168 169 171 170 170 163 164 167 174 177 175 185 178 172 171 175 178 182 185 183 178 187 179 183 204 195 207 229 237
103 99 95 99 75 68 93 78 123 168 189 55 81 189 181 132 88 32 28 86 102 107 61 42 32 14 354 338 306 302 298 300 302 306 307 284 231 219 217 211 202 190 189 184 192 182 167 162 163 171 174 175 176 169 166 164 165 163 155 161 172 176 174 174 176 168 174 184 179 173 169 180 180 183 186 186 188 194 173 179 210 216 224 230 231
89 90 92 89 88 85 95 98 100 108 130 156 180 193 220 212 137 112 63 306 49 68 71 53 30 4 339 325 291 259 275 286 290 288 277 258 245 237 229 217 203 194 184 185 199 185 175 173 175 180 181 178 173 169 169 165 160 155 153 160 164 165 178 178 165 170 177 180 173 176 174 178 182 181 190 187 185 204 189 191 213 220 226 228 223
66 70 86 93 93 103 105 110 112 111 98 80 87 122 117 115 123 125 135 136 134 86 77 76 49 351 331 316 305 311 305 294 287 277 273 275 264 250 236 233 216 193 182 196 193 187 183 180 180 179 181 176 168 164 163 165 161 154 150 153 153 152 159 148 173 187 178 174 174 179 175 179 183 185 188 189 191 207 203 204 212 218 221 221 229
90 71 45 47 93 95 100 102 106 108 116 116 112 109 102 92 86 71 59 53 66 78 72 98 126 81 324 321 324 319 307 303 298 292 286 274 265 260 244 228 218 217 206 199 194 185 185 184 182 180 169 170 168 164 161 159 157 151 149 147 145 149 158 167 175 181 182 177 184 177 176 179 185 190 188 195 205 199 208 214 215 213 219 218 217
72 70 80 81 84 87 88 89 94 117 118 111 94 83 92 89 81 77 63 58 66 86 82 39 24 55 304 288 298 321 318 332 330 316 282 251 251 219 205 216 218 204 205 211 202 189 183 181 175 162 155 147 140 133 132 135 139 142 147 149 149 150 157 162 163 178 189 186 182 172 173 188 188 191 200 203 209 206 209 216 215 204 210 215 218
70 75 73 72 79 91 83 82 90 96 98 99 92 91 88 77 69 72 73 71 84 90 71 306 263 199 211 350 352 318 325 357 2 347 341 204 191 185 214 210 213 208 209 206 194 178 168 146 144 140 137 133 126 129 129 135 141 139 137 138 141 151 164 167 174 188 188 184 178 173 179 188 192 192 206 206 208 204 208 206 206 212 202 210 205
45 37 57 65 82 78 93 95 97 111 95 87 85 88 87 86 91 86 85 85 82 120 108 67 15 14 17 1 352 352 309 295 265 283 287 272 198 208 213 251 272 226 211 201 175 168 155 144 138 136 135 132 131 130 125 126 129 128 136 139 145 148 145 156 173 184 183 176 173 178 185 188 197 204 211 222 203 191 199 201 205 202 191 170 191
78 62 35 23 41 82 97 96 107 108 103 106 95 89 91 110 117 121 113 105 89 72 56 31 25 21 12 353 345 335 318 21 33 37 33 37 48 134 142 120 82 247 222 357 281 173 148 133 124 125 124 123 126 124 123 127 127 130 135 139 143 143 146 154 162 174 174 174 171 177 185 199 201 208 209 207 188 195 197 201 202 207 194 195 209
68 83 121 156 80 75 93 106 112 106 95 98 105 117 130 99 87 85 95 87 76 70 51 35 27 25 10 354 351 338 359 21 31 31 36 46 55 54 69 84 71 51 32 57 55 18 67 93 105 107 112 119 117 116 121 123 126 134 141 141 140 144 150 156 163 165 172 175 184 192 202 208 205 195 188 202 195 194 199 200 202 207 206 206 199
81 79 87 112 110 129 113 100 87 90 103 101 109 110 94 97 87 83 83 90 93 81 54 32 33 35 22 353 349 348 6 28 23 26 25 22 35 72 60 63 80 83 71 52 41 41 59 77 96 112 115 115 118 122 126 130 131 137 136 137 140 146 154 160 163 164 171 177 192 188 184 178 179 185 189 199 196 198 192 199 197 200 205 215 214
80 76 72 72 80 74 80 79 87 69 71 91 101 110 121 105 92 85 86 90 78 59 44 32 41 55 33 7 7 7 35 36 29 41 42 31 33 30 37 76 88 97 105 104 95 70 70 98 110 113 113 116 119 120 123 129 132 133 135 140 147 150 156 155 160 163 167 170 174 178 176 179 179 191 194 191 190 196 195 193 205 200 207 206 213
68 76 77 77 67 71 74 73 61 68 67 71 74 63 56 82 103 109 99 88 80 70 43 34 48 53 71 72 28 25 52 40 30 32 36 42 40 33 25 18 36 80 101 111 118 132 135 122 109 107 116 124 127 133 134 136 138 137 141 145 149 154 154 156 157 160 163 168 172 175 179 178 177 190 192 191 197 190 206 199 207 210 207 212 205
67 71 71 69 73 72 62 68 77 76 74 71 70 75 101 115 123 133 128 118 104 88 61 44 27 15 26 108 87 48 49 46 45 37 38 45 47 48 43 26 32 59 72 76 85 99 106 96 96 99 99 106 115 117 124 132 139 144 145 148 150 150 154 155 158 162 168 171 170 172 181 180 180 191 191 187 199 200 201 203 206 212 212 208 215
53 50 56 62 55 57 63 65 50 51 71 130 110 114 113 111 109 104 102 107 96 78 90 90 90 78 67 46 51 60 67 66 62 66 63 60 65 65 69 62 57 63 72 77 86 90 97 104 99 101 114 117 124 125 126 134 137 141 146 146 146 150 152 153 158 163 166 171 172 175 184 183 187 196 193 189 201 203 208 205 206 208 214 222 209
41 49 54 59 59 56 47 45 43 42 42 42 47 57 71 66 66 59 71 84 90 107 103 88 60 23 29 52 63 66 72 83 82 67 66 69 73 73 66 86 106 100 101 107 112 116 118 119 128 128 121 125 130 136 138 140 144 142 142 144 145 148 149 153 156 160 167 174 180 182 186 189 192 197 197 195 195 205 214 211 206 206 210 215 220
39 40 40 42 47 56 52 46 39 33 41 39 35 29 40 51 60 68 62 50 89 110 64 59 56 39 26 33 35 72 87 80 97 99 85 90 104 111 103 112 102 82 90 89 96 103 108 117 121 126 129 132 138 137 140 138 135 136 138 145 149 147 153 155 155 163 166 179 184 190 183 194 192 198 190 208 209 201 216 214 210 205 209 218 215
46 47 40 35 31 27 30 26 37 38 38 45 37 28 22 31 48 57 77 105 74 52 43 69 64 51 30 35 46 49 59 73 75 87 101 101 105 110 115 120 115 103 103 102 102 105 118 120 128 131 133 136 135 139 136 137 140 144 149 150 157 155 138 147 157 162 164 169 181 187 182 197 195 204 194 194 216 215 208 215 213 213 218 217 227
49 47 48 40 37 32 28 28 28 27 32 33 47 39 29 27 37 29 36 41 45 34 28 44 54 39 31 30 38 53 56 50 67 73 89 97 100 105 100 102 120 124 128 123 121 124 126 134 134 137 137 139 142 139 144 147 148 153 150 150 104 109 121 141 165 142 138 166 172 189 189 201 208 207 202 202 213 223 215 218 221 223 218 220 222
51 51 50 49 47 44 45 41 35 30 28 32 37 36 33 35 38 36 38 40 35 28 24 24 34 26 43 53 47 60 59 60 61 70 77 88 96 101 111 118 116 121 126 132 138 139 147 139 144 142 143 146 144 149 149 154 154 151 156 120 123 125 119 114 107 116 153 181 174 190 189 202 206 208 205 205 208 221 222 220 225 226 225 222 216
50 50 49 46 44 42 39 39 38 36 35 36 39 39 33 31 31 26 19 26 32 31 26 25 26 24 23 38 33 42 49 55 61 65 71 85 88 93 96 102 109 112 116 129 134 143 137 151 147 146 148 148 155 157 163 158 167 154 117 125 132 128 128 129 138 144 168 220 182 187 193 202 200 200 203 203 211 213 221 229 226 222 226 220 216